Regional Weather Roundup
Issued by NWS

Home | Current Version | Previous Version | Text Only | Print | Product List | Glossary On
Versions: 1 2 3 4 5 6 7 8 9 10 11 12 13 14 15 16 17 18 19 20 21 22 23 24 25 26 27 28 29 30 31 32 33 34 35 36 37 38 39 40 41 42 43 44 45 46 47 48 49 50
000
ASUS43 KLOT 282108
RWRIL

ILLINOIS REGIONAL WEATHER ROUNDUP
NATIONAL WEATHER SERVICE CHICAGO/ROMEOVILLE IL
400 PM CDT TUE MAR 28 2017

NOTE: "FAIR" INDICATES FEW OR NO CLOUDS BELOW 12,000 FEET WITH NO
SIGNIFICANT WEATHER AND/OR OBSTRUCTIONS TO VISIBILITY.

* THESE STATIONS ARE NOT UNDER NWS QUALITY CONTROL. THEY ALSO MAY NOT
  REPORT WEATHER SUCH AS PRECIPITATION OR FOG.

ILZ001-002-007-009-015-016-024-282200-
NORTHWEST ILLINOIS

CITY           SKY/WX    TMP DP  RH WIND       PRES   REMARKS
MOLINE         CLOUDY    53  42  66 NE9       30.12S
STERLING*      CLOUDY    48  40  73 NE6       30.14F
SAVANNA*       CLOUDY    49  39  68 NE5       30.15S
$$

ILZ003-004-008-010-011-017-018-282200-
NORTH CENTRAL ILLINOIS

CITY           SKY/WX    TMP DP  RH WIND       PRES   REMARKS
ROCKFORD       CLOUDY    53  39  59 VRB3      30.15F
FREEPORT*      CLOUDY    49  40  71 NE6       30.16S
ROCHELLE*      CLOUDY    47  40  76 NE7       30.14S
DE KALB*       CLOUDY    49  41  74 NE7       30.14S
PERU*          CLOUDY    47  39  76 NE9       30.14S
$$

ILZ005-006-012>014-019>023-282200-
NORTHEAST ILLINOIS

CITY           SKY/WX    TMP DP  RH WIND       PRES   REMARKS
CHICAGO-OHARE  PTSUNNY   48  37  65 NE14      30.14R
CHICAGO-MIDWAY CLOUDY    45  37  73 N13G23    30.15R
AURORA         CLOUDY    50  40  68 NE6       30.13F
LANSING*       CLOUDY    41  39  91 N9        30.15S
JOLIET*        CLOUDY    50  40  68 NE10      30.14R
WAUKEGAN       MOSUNNY   41  36  82 NE14      30.15R
DUPAGE AIRPORT CLOUDY    51  42  71 NE8       30.12S
KANKAKEE*      CLOUDY    47  38  73 NE9       30.14S
WHEELING       SUNNY     44  38  79 NE13      30.16R
MORRIS*        CLOUDY    48  40  72 CALM      30.13R
ROMEOVILLE*    CLOUDY    48  42  81 E10G16    30.13S
NORTHERLY ISL    N/A     40  36  86 N14         N/A
$$

LMZ740>746-282200-
SOUTHERN LAKE MICHIGAN

STATION/POSITION SKY/WX   TEMP    WIND        PRES    VSBY  WAVE
                          AIR SEA DIR/SP/G                  HT/PER
                          (F)     (DEG/KT/KT) (MB)    (MI)  (FT/S)
HARRISON CRIB              38     360/ 15/ 15   N/A
BURNHAM HARBOR             39     360/ 13/ 13   N/A
CALUMET HARBOR             38     340/ 12/ 16 1020.6R
BURNS HARBOR               38     360/ 10/ 12 1021.3R
MICHIGAN CITY              39     340/  8/  9   N/A
$$

ILZ025>027-034>036-040-047-049-050-058-095>099-282200-
WEST-CENTRAL ILLINOIS

CITY           SKY/WX    TMP DP  RH WIND       PRES   REMARKS
QUINCY         CLOUDY    52  49  89 E8        30.08F
GALESBURG*     CLOUDY    51  44  76 N7        30.11S
MACOMB*        CLOUDY    52  47  83 E9        30.13S
JACKSONVILLE*  CLOUDY    55  46  74 NE10      30.09S
PITTSFIELD*    CLOUDY    54  49  83 NE7       30.09F
$$

ILZ028>032-037-038-041>044-048-051>054-059>061-282200-
CENTRAL ILLINOIS

CITY           SKY/WX    TMP DP  RH WIND       PRES   REMARKS
PONTIAC        CLOUDY    50  45  83 NE13      30.13S
DECATUR        CLOUDY    56  45  66 N9        30.09F
PEORIA         CLOUDY    53  44  71 E7        30.11F
LACON*         CLOUDY    51  43  74 NE6       30.11S
LINCOLN*       CLOUDY    54  48  81 N8        30.10F
SPRINGFIELD    CLOUDY    56  46  69 NE8       30.10S
TAYLORVILLE    CLOUDY    55  46  71 N7        30.09S
$$

ILZ033-039-045-046-055>057-062-063-282200-
EAST-CENTRAL ILLINOIS

CITY           SKY/WX    TMP DP  RH WIND       PRES   REMARKS
CHAMPAIGN      CLOUDY    58  43  57 N12G18    30.08F
RANTOUL*       CLOUDY    55  45  68 N9        30.09S
MATTOON        CLOUDY    57  47  69 N12       30.07S
PARIS*         CLOUDY    57  47  69 N7        30.08F
$$

ILZ079-100>102-282200-
SOUTHWEST ILLINOIS

CITY           SKY/WX    TMP DP  RH WIND       PRES   REMARKS
ALTON          CLOUDY    55  48  76 NE6       30.07F
BELLEVILLE     CLOUDY    59  49  71 VRB5      30.05F
CAHOKIA*       CLOUDY    59  47  64 N3        30.06F
SPARTA*        CLOUDY    56  49  77 CALM      30.08S
$$

ILZ064>066-069>071-074>076-080>082-084>086-088>090-092>094-282200-
SOUTH-CENTRAL ILLINOIS

CITY           SKY/WX    TMP DP  RH WIND       PRES   REMARKS
CARBONDALE     CLOUDY    58  51  78 NW7       30.06F
CAIRO*         CLOUDY    60  52  76 NE7       30.05S
EFFINGHAM*     CLOUDY    60  50  70 N6        30.08S
MT. VERNON     CLOUDY    59  49  69 N8        30.06S
CENTRALIA*     CLOUDY    57  49  76 W3        30.07S
SALEM*         CLOUDY    60  48  66 CALM      30.07S
METROPOLIS*    CLOUDY    62  54  73 N6        30.04F
$$

ILZ067-068-072-073-078-083-087-091-282200-
SOUTHEAST ILLINOIS

CITY           SKY/WX    TMP DP  RH WIND       PRES   REMARKS
LAWRENCEVILLE  CLOUDY    62  51  67 N7        30.05S
FLORA*         PTSUNNY   62  50  65 N6        30.06S
FAIRFIELD*     MOSUNNY   63  51  64 CALM      30.04F
HARRISBURG*    CLOUDY    59  52  78 W6        30.06F
ROBINSON*      CLOUDY    60  50  69 N5        30.07S
CARMI*         CLOUDY    61  51  70 CALM      30.04F
$$

ABBREVIATIONS USED IN REMARKS
   TC - TEMPERATURE IN CELSIUS
  WCI - WIND CHILL INDEX
   HX - HEAT INDEX
  VSB - VISIBILITY
$$




USA.gov is the U.S. government's official web portal to all federal, state and local government web resources and services.